User: anonymous   Login
Location: Montr�al
(45.5000°N, 73.5830°W)
Time: 06:41:51
(UTC-05:00)
Language:

Cosmos 1470 Rocket - Orbit

View from above orbital plane
View from above orbital plane
View from above satellite
View from above satellite

Ground track
Ground track

The orbit data is extracted from the following two-line orbital elements,

1 14148U 83061B   15032.04115109  .00000547  00000-0  64401-4 0  8745
2 14148 082.5210 001.6096 0020270 312.6534 091.6913 14.82895706706311
Epoch (UTC): 01 February 2015 00:59:15
Eccentricity: 0.0020270
inclination: 82.5210°
perigee height: 606 km
apogee height: 634 km
right ascension of ascending node: 1.6096°
argument of perigee: 312.6534°
revolutions per day: 14.82895706
mean anomaly at epoch: 91.6913°
orbit number at epoch: 70631

The dashed part of the orbit path shows where the satellite is in the earth's shadow,  

DLR